Location: Unspecified
(0.0000°N, 0.0000°E)
Time: 18:53:34
(UTC+02:00)

Haruka - Visible Passes

Search period start: 03 May 2015 00:00
Search period end: 13 May 2015 00:00
Orbit: 547 x 21225 km, 31.3° (Epoch: 01 May)

Date Brightness Start Highest point End Pass type
(mag) Time Alt. Az. Time Alt. Az. Time Alt. Az.
03 May 8.1 06:30:44 13° SW 10:06:00 79° SE 11:41:35 10° NE visible
04 May 8.3 01:19:42 16° SE 01:19:42 16° SE 01:32:29 10° SE visible
05 May 8.1 02:25:00 29° SSE 02:25:00 29° SSE 06:06:30 10° E visible
06 May 7.9 03:30:18 37° S 03:30:55 37° S 08:08:24 10° ENE visible
06 May 4.0 21:42:15 10° NNW 21:44:23 28° N 21:44:23 28° N visible
07 May 7.9 04:35:36 34° SSW 05:05:10 44° SSE 09:31:20 10° ENE visible
08 May 8.0 05:40:54 23° SW 07:45:12 63° SSE 10:46:02 10° ENE visible
09 May 8.3 06:46:35 10° SW 10:45:32 87° NW 11:57:20 10° NE visible
10 May 8.3 01:35:09 20° SE 01:35:09 20° SE 02:06:41 10° SE visible
11 May 8.1 02:40:28 32° SSE 02:40:28 32° SSE 06:58:08 10° E visible
11 May 4.1 20:49:25 10° NNW 20:51:59 20° NE 20:53:55 15° ENE visible
12 May 8.0 03:45:46 37° S 03:56:00 39° SSE 08:31:22 10° ENE visible
12 May 3.4 21:56:35 10° NW 21:59:05 53° NW 21:59:05 53° NW visible
